Location: Lone Wolf Observatory
(41.0360°N, 89.2260°W)
Time: 12:43:30
(UTC-05:00)

Amateur Radio Satellites - All Passes

Search period start: 27 May 2015 12:13
Search period end: 28 May 2015 12:13
Location: Lone Wolf Observatory, 41.0360°N, 89.2260°W

Satellite Date Start Highest point End Downlink Frequencies (MHz)
Time Altitude Azimuth
NANOSAT C BR1 27 May 12:18:49 12:21:59 19° 268° (W) 12:25:02 145.865
TISAT 1 27 May 12:19:27 12:21:26 13° 89° (E) 12:23:38 437.305
HUMSAT D 27 May 12:23:08 12:26:37 26° 291° (WNW) 12:30:00 437.325/437.525
QB50P2 27 May 12:27:48 12:30:26 15° 270° (W) 12:32:54 145.880/145.840
DANDE 27 May 12:31:09 12:37:15 32° 86° (E) 12:44:27 436.750
UKube-1 27 May 12:33:15 12:36:46 24° 292° (WNW) 12:40:11 .
ZACube-1 27 May 12:34:28 12:35:39 11° 297° (WNW) 12:36:35 437.345
POPSAT HIP 1 27 May 12:41:11 12:42:46 11° 272° (W) 12:44:05 437.405
DUCHIFAT 1 27 May 12:42:56 12:44:21 11° 272° (W) 12:45:31 145.980
DX 1 27 May 12:43:00 12:46:05 18° 294° (WNW) 12:49:02 434.975-435.025
GONETS M04 27 May 12:47:24 12:55:26 42° 88° (E) 13:03:36
CUBEBUG 1 27 May 12:54:45 12:59:02 48° 287° (WNW) 13:03:18 437.445
Oscar 19 27 May 12:55:17 12:59:59 37° 69° (ENE) 13:04:46 437.125/150
VELOX 1 27 May 12:58:17 13:01:58 25° 292° (WNW) 13:05:33 145.980
CUSAT 1 27 May 12:58:21 13:05:33 63° 94° (E) 13:13:45 437.405
ESTCUBE 1 27 May 13:02:24 13:06:33 36° 289° (WNW) 13:10:41 437.505/2401.250
ITAMSAT 1 27 May 13:12:11 13:15:16 17° 63° (ENE) 13:18:34 435.822/435.867
50 SAT 27 May 13:15:15 13:16:39 11° 295° (WNW) 13:17:51 437.505
ITUPSAT 1 27 May 13:23:59 13:25:01 11° 87° (E) 13:26:23 437.325
BEESAT 27 May 13:30:23 13:32:34 13° 89° (E) 13:35:01 436.000
AISAT 27 May 13:31:44 13:33:31 12° 297° (WNW) 13:35:06 437.250
SPROUT 27 May 13:31:48 13:36:08 66° 285° (WNW) 13:40:24 437.525
SWISSCUBE 27 May 13:38:10 13:41:20 18° 91° (E) 13:44:39 437.505
Gurwin Techsat 1B 27 May 13:50:46 13:55:29 35° 69° (ENE) 14:00:17 435.225
SO-50 27 May 13:51:47 13:54:22 14° 251° (WSW) 13:56:42 436.795
TISAT 1 27 May 13:53:25 13:57:36 52° 287° (WNW) 14:01:44 437.305
Cosmos 2499 27 May 13:53:25 13:58:12 18° 83° (E) 14:03:11 435.465 / 435.565
DANDE 27 May 14:12:57 14:20:03 56° 286° (WNW) 14:28:22 436.750
AO-7 27 May 14:16:32 14:22:22 23° 54° (NE) 14:28:29 29.400- 29.500
RS-15 27 May 14:16:51 14:24:45 21° 4° (N) 14:32:56 29.354- 29.394
JAS-2 27 May 14:28:15 14:32:21 19° 64° (ENE) 14:36:24 435.910
Oscar 19 27 May 14:35:02 14:39:26 27° 266° (W) 14:43:47 437.125/150
CUSAT 1 27 May 14:42:16 14:48:54 30° 295° (WNW) 14:55:55 437.405
GONETS M04 27 May 14:43:57 14:52:18 43° 288° (WNW) 15:00:35
ITAMSAT 1 27 May 14:49:11 14:54:18 65° 258° (WSW) 14:59:29 435.822/435.867
HORYU 2 27 May 14:53:17 14:56:39 22° 67° (ENE) 15:00:07 437.375
ITUPSAT 1 27 May 14:58:46 15:03:35 77° 284° (WNW) 15:08:22 437.325
KKS-1 27 May 15:02:06 15:05:27 21° 93° (E) 15:08:54 437.445
BEESAT 27 May 15:06:11 15:10:56 63° 286° (WNW) 15:15:38 436.000
O/OREOS (USA 219) 27 May 15:09:21 15:13:06 27° 104° (ESE) 15:16:56 437.305
SWISSCUBE 27 May 15:14:54 15:19:30 47° 288° (WNW) 15:24:04 437.505
Gurwin Techsat 1B 27 May 15:30:51 15:35:30 30° 265° (W) 15:40:07 435.225
Cosmos 2499 27 May 15:42:29 15:50:40 82° 278° (W) 15:58:15 435.465 / 435.565
DANDE 27 May 16:02:21 16:05:39 12° 310° (NW) 16:08:32 436.750
STARS 27 May 16:04:12 16:08:36 61° 101° (E) 16:12:58 437.465
AO-7 27 May 16:05:57 16:14:16 88° 253° (WSW) 16:22:39 29.400- 29.500
JAS-2 27 May 16:10:21 16:17:06 73° 258° (WSW) 16:23:02 435.910
HORYU 2 27 May 16:28:57 16:33:06 36° 262° (W) 16:37:14 437.375
RS-15 27 May 16:31:22 16:41:44 38° 37° (NE) 16:52:42 29.354- 29.394
MOZHAYETS 4 27 May 16:35:24 16:38:24 18° 91° (E) 16:41:34
KKS-1 27 May 16:38:06 16:42:13 36° 289° (WNW) 16:46:16 437.445
O/OREOS (USA 219) 27 May 16:48:30 16:52:28 29° 301° (WNW) 16:56:24 437.305
BEESAT 3 27 May 17:00:40 17:02:32 13° 110° (ESE) 17:04:36 437.485
CUTE-I 27 May 17:08:10 17:11:35 18° 63° (ENE) 17:15:10 437.470
Cubesat XI-IV 27 May 17:27:52 17:32:13 27° 66° (ENE) 17:36:40 437.490
Cosmos 2499 27 May 17:40:40 17:45:07 15° 299° (WNW) 17:48:57 435.465 / 435.565
STARS 27 May 17:42:19 17:44:35 14° 296° (WNW) 17:46:39 437.465
BEESAT 2 27 May 17:48:15 17:51:59 35° 116° (ESE) 17:55:47 435.950
AO-7 27 May 18:03:06 18:08:22 17° 272° (W) 18:13:08 29.400- 29.500
MOZHAYETS 4 27 May 18:11:33 18:15:54 44° 288° (WNW) 18:20:14
CUBESAT XI-V 27 May 18:15:58 18:18:56 17° 90° (E) 18:22:05 437.345
YUBILEINY 27 May 18:28:27 18:36:56 55° 76° (ENE) 18:45:25 435.215
Cosmos 2491 27 May 18:33:22 18:40:25 29° 84° (E) 18:47:46 435.465 / 435.565
BEESAT 3 27 May 18:36:04 18:40:05 56° 305° (NW) 18:44:09 437.485
RS-15 27 May 18:43:47 18:55:27 78° 241° (WSW) 19:07:32 29.354- 29.394
CUTE-I 27 May 18:45:58 18:51:13 62° 259° (W) 18:56:30 437.470
BRITE-PL 27 May 19:02:38 19:06:16 20° 64° (ENE) 19:10:13 437.365/2234.400
GOMX 1 27 May 19:03:04 19:05:22 13° 61° (ENE) 19:07:57 467.674
Cubesat XI-IV 27 May 19:07:12 19:12:10 39° 263° (W) 19:17:08 437.490
AIST 2 27 May 19:20:06 19:24:22 85° 302° (WNW) 19:28:41 435.215
PRISM 27 May 19:20:19 19:24:03 32° 97° (E) 19:27:49 437.425
BEESAT 2 27 May 19:26:45 19:30:09 24° 313° (NW) 19:33:33 435.950
M-CUBED/EXP-1 PRIME 27 May 19:38:42 19:40:14 13° 97° (E) 19:41:54 437.505
HO-68 27 May 19:44:53 19:51:11 36° 64° (ENE) 19:57:36 435.675
AUBIESAT-1 27 May 19:45:58 19:47:41 14° 98° (E) 19:49:32 437.475
STRAND 1 27 May 19:50:26 19:55:32 61° 100° (E) 20:00:39 437.568
CUBESAT XI-V 27 May 19:52:10 19:56:42 49° 287° (WNW) 20:01:14 437.345
DOVE 4 27 May 19:57:51 20:02:08 28° 68° (ENE) 20:06:37 437.250
CANX-2 27 May 20:11:58 20:15:47 33° 71° (ENE) 20:19:38 2200.000
CUTE 1.7 + AOD 2 27 May 20:15:25 20:19:13 32° 71° (ENE) 20:23:03 437.475
CUBEBUG 2 27 May 20:20:09 20:21:19 11° 62° (ENE) 20:22:45 437.445
YUBILEINY 27 May 20:25:56 20:33:24 32° 275° (W) 20:40:39 435.215
AIST 1 27 May 20:27:41 20:31:39 40° 92° (E) 20:35:40
Cosmos 2491 27 May 20:28:06 20:36:47 60° 283° (WNW) 20:45:31 435.465 / 435.565
Oscar 11 27 May 20:28:19 20:30:10 13° 64° (ENE) 20:32:14 145.826/435.025
SEEDS 27 May 20:36:30 20:40:32 45° 73° (ENE) 20:44:35 437.485
GOMX 1 27 May 20:37:33 20:42:42 88° 256° (WSW) 20:48:11 467.674
BRITE-PL 27 May 20:39:17 20:44:17 56° 261° (W) 20:49:42 437.365/2234.400
COMPASS 1 27 May 20:48:25 20:52:28 50° 74° (ENE) 20:56:32 437.405
PRISM 27 May 20:56:10 20:59:21 21° 292° (WNW) 21:02:27 437.425
RS-15 27 May 20:58:55 21:06:25 18° 259° (W) 21:13:11 29.354- 29.394
AAUSAT CUBESAT 2 27 May 20:59:48 21:03:53 58° 75° (ENE) 21:08:00 437.432
AIST 2 27 May 21:01:42 21:03:40 13° 322° (NW) 21:05:31 435.215
UWE-3 27 May 21:03:01 21:06:41 24° 68° (ENE) 21:10:27 435.000/436.395/437.385
CINEMA 3 27 May 21:06:29 21:11:24 62° 74° (ENE) 21:16:24 145.822/145.860
Cosmos 2504 27 May 21:07:39 21:14:43 55° 77° (ENE) 21:21:46 435.465 / 435.565
FUNcube-1 27 May 21:11:04 21:14:32 22° 68° (ENE) 21:18:05 145.935
M-CUBED/EXP-1 PRIME 27 May 21:12:19 21:15:17 30° 293° (WNW) 21:18:14 437.505
AUBIESAT-1 27 May 21:19:43 21:22:38 29° 294° (WNW) 21:25:32 437.475
DELFI C3 27 May 21:22:00 21:25:35 32° 71° (ENE) 21:29:13 145.870
STRAND 1 27 May 21:30:54 21:34:19 18° 297° (WNW) 21:37:33 437.568
HO-68 27 May 21:31:55 21:38:47 46° 261° (W) 21:45:37 435.675
DOVE 4 27 May 21:34:56 21:39:42 38° 264° (W) 21:44:37 437.250
HUMSAT D 27 May 21:39:32 21:42:36 20° 68° (ENE) 21:45:46 437.325/437.525
CANX-2 27 May 21:48:32 21:51:48 21° 267° (W) 21:54:59 2200.000
ZACube-1 27 May 21:50:46 21:55:16 57° 75° (ENE) 21:59:47 437.345
UKube-1 27 May 21:51:50 21:55:26 27° 68° (ENE) 21:59:08 .
CUTE 1.7 + AOD 2 27 May 21:51:55 21:55:13 21° 267° (W) 21:58:25 437.475
CUBEBUG 2 27 May 21:52:36 21:57:23 88° 259° (W) 22:02:10 437.445
DX 1 27 May 22:01:26 22:05:25 36° 70° (ENE) 22:09:27 434.975-435.025
Oscar 11 27 May 22:01:37 22:05:54 61° 259° (W) 22:10:12 145.826/435.025
AIST 1 27 May 22:06:46 22:09:33 16° 291° (WNW) 22:12:13
SEEDS 27 May 22:14:08 22:16:38 15° 270° (W) 22:18:56 437.485
CUBEBUG 1 27 May 22:16:41 22:18:50 14° 64° (ENE) 22:21:10 437.445
VELOX 1 27 May 22:19:12 22:22:58 28° 69° (ENE) 22:26:49 145.980
GOMX 1 27 May 22:20:46 22:21:48 10° 277° (W) 22:22:26 467.674
50 SAT 27 May 22:23:08 22:26:40 31° 71° (ENE) 22:30:13 437.505
ESTCUBE 1 27 May 22:26:07 22:29:21 20° 67° (ENE) 22:32:42 437.505/2401.250
COMPASS 1 27 May 22:26:22 22:28:29 13° 271° (W) 22:30:25 437.405
Cosmos 2491 27 May 22:33:07 22:36:07 11° 308° (NW) 22:38:27 435.465 / 435.565
AAUSAT CUBESAT 2 27 May 22:38:29 22:39:57 11° 272° (W) 22:41:10 437.432
UWE-3 27 May 22:38:42 22:43:02 36° 264° (W) 22:47:20 435.000/436.395/437.385
CINEMA 3 27 May 22:46:02 22:49:04 15° 272° (W) 22:51:54 145.822/145.860
FUNcube-1 27 May 22:46:22 22:50:39 37° 263° (W) 22:54:54 145.935
ANTELSAT 27 May 22:48:25 22:51:51 23° 93° (E) 22:55:20 437.575/2403.000
AISAT 27 May 22:50:25 22:54:49 64° 74° (ENE) 22:59:17 437.250
ISS 27 May 22:53:17 22:56:08 29° 136° (SE) 22:59:01 145.825
DELFI C3 27 May 22:57:53 23:00:49 19° 268° (W) 23:03:38 145.870
GONETS M04 27 May 22:58:19 23:04:16 20° 61° (ENE) 23:10:35
Cosmos 2504 27 May 23:01:58 23:07:40 25° 275° (W) 23:13:08 435.465 / 435.565
BUGSAT 1 27 May 23:10:04 23:11:20 11° 88° (E) 23:12:51 437.445
TISAT 1 27 May 23:12:59 23:14:00 11° 63° (ENE) 23:15:16 437.305
DANDE 27 May 23:13:52 23:20:07 26° 61° (ENE) 23:25:33 436.750
HUMSAT D 27 May 23:14:05 23:18:07 37° 263° (W) 23:22:08 437.325/437.525
TIGRISAT 27 May 23:20:15 23:24:31 50° 99° (E) 23:28:41 435.000
UKube-1 27 May 23:27:49 23:31:31 27° 265° (W) 23:35:12 .
ZACube-1 27 May 23:29:31 23:32:03 14° 271° (W) 23:34:21 437.345
QB50P1 27 May 23:31:45 23:35:33 30° 96° (E) 23:39:21 145.935-145.965
POLYITAN 1 27 May 23:34:14 23:38:07 33° 96° (E) 23:41:59 437.675
DX 1 27 May 23:38:33 23:41:49 20° 267° (W) 23:44:58 434.975-435.025
CUSAT 1 27 May 23:38:56 23:45:49 46° 71° (ENE) 23:51:14 437.405
UNISAT 6 27 May 23:41:01 23:45:27 89° 118° (ESE) 23:49:45 437.425
CUBEBUG 1 27 May 23:50:28 23:54:45 58° 260° (W) 23:59:06 437.445
VELOX 1 27 May 23:55:43 23:59:30 26° 265° (W) 00:03:15 145.980
50 SAT 27 May 23:58:28 00:01:26 19° 267° (W) 00:04:19 437.505
ESTCUBE 1 28 May 00:01:47 00:05:59 38° 263° (W) 00:10:11 437.505/2401.250
NANOSAT C BR1 28 May 00:02:25 00:06:42 69° 102° (ESE) 00:10:55 145.865
QB50P2 28 May 00:11:09 00:15:28 89° 112° (ESE) 00:19:43 145.880/145.840
POPSAT HIP 1 28 May 00:23:13 00:27:30 69° 285° (WNW) 00:31:43 437.405
DUCHIFAT 1 28 May 00:24:20 00:28:36 68° 285° (WNW) 00:32:48 145.980
ANTELSAT 28 May 00:24:50 00:28:43 30° 290° (WNW) 00:32:27 437.575/2403.000
SPROUT 28 May 00:25:27 00:29:47 88° 257° (WSW) 00:34:10 437.525
PCSat 28 May 00:27:24 00:32:23 39° 112° (ESE) 00:37:26 145.827
ISS 28 May 00:29:29 00:32:30 34° 333° (NNW) 00:35:32 145.825
AISAT 28 May 00:30:09 00:31:56 12° 272° (W) 00:33:26 437.250
ITUPSAT 1 28 May 00:30:25 00:32:45 14° 63° (ENE) 00:35:17 437.325
BEESAT 28 May 00:36:52 00:39:44 17° 64° (ENE) 00:42:47 436.000
BUGSAT 1 28 May 00:43:03 00:47:17 61° 286° (WNW) 00:51:28 437.445
SWISSCUBE 28 May 00:44:49 00:48:18 21° 66° (ENE) 00:51:56 437.505
TISAT 1 28 May 00:45:01 00:49:15 72° 258° (WSW) 00:53:32 437.305
GONETS M04 28 May 00:53:39 01:02:29 86° 264° (W) 01:11:13
DANDE 28 May 00:56:30 01:04:10 61° 267° (W) 01:10:07 436.750
TIGRISAT 28 May 00:58:16 01:00:53 15° 295° (WNW) 01:03:19 435.000
QB50P1 28 May 01:07:52 01:11:17 23° 292° (WNW) 01:14:36 145.935-145.965
Oscar 19 28 May 01:08:50 01:10:47 12° 87° (E) 01:13:04 437.125/150
POLYITAN 1 28 May 01:10:32 01:13:51 21° 292° (WNW) 01:17:02 437.675
O/OREOS (USA 219) 28 May 01:18:40 01:23:02 51° 64° (ENE) 01:27:24 437.305
BEESAT 3 28 May 01:18:54 01:20:10 11° 37° (NE) 01:21:35 437.485
CUSAT 1 28 May 01:22:15 01:28:05 28° 275° (W) 01:32:44 437.405
Cosmos 2499 28 May 01:34:08 01:40:16 32° 71° (ENE) 01:46:36 435.465 / 435.565
NANOSAT C BR1 28 May 01:40:30 01:42:01 11° 297° (WNW) 01:43:19 145.865
VERMONT LUNAR 28 May 01:50:53 01:53:50 33° 158° (SSE) 01:56:47 437.305
KKS-1 28 May 02:00:30 02:03:42 20° 67° (ENE) 02:07:04 437.445
ITUPSAT 1 28 May 02:05:24 02:10:09 68° 258° (WSW) 02:14:55 437.325
BEESAT 2 28 May 02:07:38 02:10:58 24° 46° (NE) 02:14:19 435.950
ISS 28 May 02:07:50 02:09:39 14° 352° (N) 02:11:27 145.825
Gurwin Techsat 1B 28 May 02:08:34 02:10:54 13° 87° (E) 02:13:33 435.225
PCSat 28 May 02:11:05 02:15:54 31° 310° (NW) 02:20:42 145.827
BEESAT 28 May 02:12:31 02:17:11 56° 260° (W) 02:21:52 436.000
SWISSCUBE 28 May 02:21:25 02:25:55 41° 262° (W) 02:30:25 437.505
SO-50 28 May 02:24:27 02:28:09 24° 112° (ESE) 02:32:03 436.795
PHONESAT 2.4 28 May 02:32:26 02:35:15 23° 153° (SSE) 02:38:05 2401.200-2431.200
Oscar 19 28 May 02:45:40 02:50:50 76° 286° (WNW) 02:55:58 437.125/150
GONETS M04 28 May 02:53:00 02:58:10 16° 282° (WNW) 03:02:46
BEESAT 3 28 May 02:54:47 02:58:53 82° 56° (ENE) 03:02:55 437.485
O/OREOS (USA 219) 28 May 02:59:29 03:02:04 15° 259° (W) 03:04:26 437.305
STARS 28 May 03:00:45 03:05:04 53° 73° (ENE) 03:09:26 437.465
ITAMSAT 1 28 May 03:02:08 03:07:09 45° 99° (E) 03:12:09 435.822/435.867
JAS-2 28 May 03:22:52 03:23:48 11° 87° (E) 03:25:08 435.910
Cosmos 2499 28 May 03:26:59 03:33:36 43° 270° (W) 03:40:14 435.465 / 435.565
VERMONT LUNAR 28 May 03:27:38 03:30:52 79° 172° (S) 03:34:04 437.305
KKS-1 28 May 03:35:53 03:40:06 39° 262° (W) 03:44:20 437.445
MOZHAYETS 4 28 May 03:37:45 03:40:41 18° 66° (ENE) 03:43:45
AIST 2 28 May 03:42:03 03:46:15 59° 54° (NE) 03:50:21 435.215
ISS 28 May 03:45:00 03:47:04 16° 12° (NNE) 03:49:09 145.825
BEESAT 2 28 May 03:45:24 03:49:09 35° 244° (WSW) 03:52:49 435.950
Gurwin Techsat 1B 28 May 03:46:15 03:51:35 75° 285° (WNW) 03:56:52 435.225
SO-50 28 May 04:04:00 04:08:29 42° 310° (NW) 04:13:06 436.795
AO-7 28 May 04:08:14 04:15:24 32° 95° (E) 04:22:44 29.400- 29.500
PHONESAT 2.4 28 May 04:09:36 04:13:04 67° 169° (S) 04:16:31 2401.200-2431.200
HORYU 2 28 May 04:20:00 04:24:12 41° 98° (E) 04:28:23 437.375
STARS 28 May 04:39:25 04:41:55 14° 270° (W) 04:44:12 437.465
ITAMSAT 1 28 May 04:42:17 04:46:24 23° 295° (WNW) 04:50:23 435.822/435.867
Cosmos 2491 28 May 04:44:25 04:48:19 14° 55° (NE) 04:52:49 435.465 / 435.565
JAS-2 28 May 05:04:33 05:09:44 80° 286° (WNW) 05:15:07 435.910
VERMONT LUNAR 28 May 05:04:49 05:08:01 65° 190° (S) 05:11:10 437.305
MOZHAYETS 4 28 May 05:13:09 05:17:34 48° 261° (W) 05:22:00
CUBESAT XI-V 28 May 05:19:49 05:22:41 17° 65° (ENE) 05:25:43 437.345
ISS 28 May 05:20:53 05:24:05 50° 32° (NNE) 05:27:16 145.825
AIST 2 28 May 05:22:20 05:24:23 13° 250° (WSW) 05:26:13 435.215
Gurwin Techsat 1B 28 May 05:29:56 05:30:45 10° 302° (WNW) 05:31:15 435.225
STRAND 1 28 May 05:31:27 05:32:47 11° 60° (ENE) 05:34:24 437.568
YUBILEINY 28 May 05:41:48 05:42:03 10° 75° (ENE) 05:43:06 435.215
PHONESAT 2.4 28 May 05:47:40 05:51:09 80° 185° (S) 05:54:37 2401.200-2431.200
HORYU 2 28 May 05:57:25 06:00:35 19° 294° (WNW) 06:03:36 437.375
AO-7 28 May 06:00:28 06:08:39 58° 294° (WNW) 06:16:45 29.400- 29.500
PRISM 28 May 06:10:45 06:13:59 24° 68° (ENE) 06:17:19 437.425
M-CUBED/EXP-1 PRIME 28 May 06:25:57 06:29:15 24° 66° (ENE) 06:32:26 437.505
AUBIESAT-1 28 May 06:32:53 06:36:11 24° 66° (ENE) 06:39:22 437.475
AIST 1 28 May 06:37:02 06:38:05 11° 66° (ENE) 06:39:23
Cosmos 2491 28 May 06:38:28 06:47:18 70° 79° (E) 06:56:04 435.465 / 435.565
VERMONT LUNAR 28 May 06:42:23 06:44:54 21° 207° (SSW) 06:47:22 437.305
CUBESAT XI-V 28 May 06:55:18 06:59:46 50° 261° (W) 07:04:16 437.345
ISS 28 May 06:57:54 07:00:16 18° 227° (SW) 07:02:34 145.825
RS-15 28 May 07:02:00 07:06:42 15° 99° (E) 07:12:24 29.354- 29.394
CUTE-I 28 May 07:03:05 07:08:21 54° 100° (E) 07:13:36 437.470
STRAND 1 28 May 07:06:11 07:11:17 86° 76° (ENE) 07:16:25 437.568
Cubesat XI-IV 28 May 07:24:01 07:29:25 84° 102° (ESE) 07:34:49 437.490
PHONESAT 2.4 28 May 07:25:52 07:29:05 35° 202° (SSW) 07:32:16 2401.200-2431.200
YUBILEINY 28 May 07:28:45 07:37:19 63° 93° (E) 07:45:56 435.215
PRISM 28 May 07:45:51 07:49:22 27° 264° (W) 07:52:51 437.425
AO-7 28 May 07:55:59 07:59:52 14° 314° (NW) 08:03:18 29.400- 29.500
M-CUBED/EXP-1 PRIME 28 May 08:00:22 08:04:02 28° 258° (WSW) 08:07:25 437.505
AUBIESAT-1 28 May 08:07:21 08:10:54 26° 258° (WSW) 08:14:12 437.475
AIST 1 28 May 08:11:57 08:16:19 67° 265° (W) 08:20:41
Cosmos 2491 28 May 08:36:37 08:43:28 25° 278° (W) 08:49:56 435.465 / 435.565
GOMX 1 28 May 08:40:27 08:45:07 31° 93° (E) 08:49:38 467.674
CUTE-I 28 May 08:44:06 08:48:05 21° 296° (WNW) 08:51:54 437.470
BRITE-PL 28 May 08:44:21 08:49:53 54° 98° (E) 08:55:08 437.365/2234.400
STRAND 1 28 May 08:50:10 08:51:17 10° 274° (W) 08:52:02 437.568
HO-68 28 May 08:59:34 09:05:59 36° 96° (E) 09:12:28 435.675
CINEMA 3 28 May 09:03:39 09:06:07 15° 88° (E) 09:08:44 145.822/145.860
Cubesat XI-IV 28 May 09:06:08 09:08:54 14° 300° (WNW) 09:11:24 437.490
RS-15 28 May 09:06:32 09:17:17 73° 118° (ESE) 09:28:24 29.354- 29.394
PCSat 28 May 09:15:13 09:20:04 33° 50° (NE) 09:24:58 145.827
YUBILEINY 28 May 09:27:26 09:34:52 29° 294° (WNW) 09:42:02 435.215
CANX-2 28 May 09:32:39 09:36:52 67° 101° (E) 09:41:03 2200.000
DOVE 4 28 May 09:34:13 09:39:19 67° 101° (E) 09:44:05 437.250
CUTE 1.7 + AOD 2 28 May 09:35:59 09:40:11 66° 100° (E) 09:44:23 437.475
ZACube-1 28 May 09:42:53 09:43:21 10° 87° (E) 09:44:06 437.345
Cosmos 2504 28 May 09:44:55 09:52:46 49° 91° (E) 10:00:12 435.465 / 435.565
CUBEBUG 2 28 May 09:45:14 09:48:21 19° 91° (E) 09:51:31 437.445
ANTELSAT 28 May 09:47:15 09:50:53 23° 68° (ENE) 09:54:34 437.575/2403.000
Oscar 11 28 May 09:49:36 09:53:02 23° 94° (E) 09:56:32 145.826/435.025
SEEDS 28 May 09:56:22 10:00:34 88° 284° (WNW) 10:04:45 437.485
COMPASS 1 28 May 10:07:19 10:11:30 82° 281° (W) 10:15:38 437.405
AAUSAT CUBESAT 2 28 May 10:18:14 10:22:23 72° 284° (WNW) 10:26:29 437.432
TIGRISAT 28 May 10:18:26 10:22:54 45° 72° (ENE) 10:27:20 435.000
GOMX 1 28 May 10:18:27 10:23:14 33° 291° (WNW) 10:27:44 467.674
BRITE-PL 28 May 10:23:39 10:27:58 22° 295° (WNW) 10:32:00 437.365/2234.400
QB50P1 28 May 10:24:40 10:28:04 24° 68° (ENE) 10:31:33 145.935-145.965
POLYITAN 1 28 May 10:27:20 10:30:52 26° 69° (ENE) 10:34:30 437.675
UWE-3 28 May 10:28:45 10:32:58 46° 98° (E) 10:37:04 435.000/436.395/437.385
FUNcube-1 28 May 10:34:57 10:39:01 40° 97° (E) 10:42:59 145.935
DELFI C3 28 May 10:35:50 10:39:48 56° 100° (E) 10:43:45 145.870
CINEMA 3 28 May 10:39:11 10:43:48 54° 287° (WNW) 10:48:10 145.822/145.860
UNISAT 6 28 May 10:39:16 10:43:58 78° 75° (ENE) 10:48:37 437.425
AISAT 28 May 10:43:16 10:45:03 12° 89° (E) 10:47:05 437.250
HO-68 28 May 10:47:08 10:53:51 44° 294° (WNW) 11:00:29 435.675
NANOSAT C BR1 28 May 10:54:37 10:58:44 49° 73° (ENE) 11:02:55 145.865
SO-50 28 May 10:55:19 10:59:27 26° 44° (NE) 11:03:35 436.795
HUMSAT D 28 May 10:58:18 11:02:04 33° 96° (E) 11:05:49 437.325/437.525
PCSat 28 May 10:58:34 11:03:33 37° 249° (WSW) 11:08:27 145.827
QB50P2 28 May 11:03:37 11:07:52 65° 75° (ENE) 11:12:09 145.880/145.840
CANX-2 28 May 11:10:56 11:12:18 11° 296° (WNW) 11:13:27 2200.000
DOVE 4 28 May 11:13:27 11:16:28 15° 297° (WNW) 11:19:13 437.250
CUTE 1.7 + AOD 2 28 May 11:14:09 11:15:38 11° 296° (WNW) 11:16:53 437.475
UKube-1 28 May 11:14:39 11:18:53 48° 100° (E) 11:23:06 .
POPSAT HIP 1 28 May 11:15:27 11:19:45 86° 77° (ENE) 11:24:05 437.405
ZACube-1 28 May 11:16:00 11:20:19 66° 284° (WNW) 11:24:29 437.345
DUCHIFAT 1 28 May 11:16:09 11:20:26 86° 74° (ENE) 11:24:45 145.980
RS-15 28 May 11:20:42 11:30:44 38° 323° (NW) 11:40:57 29.354- 29.394
CUBEBUG 2 28 May 11:21:08 11:25:15 37° 289° (WNW) 11:29:11 437.445
ANTELSAT 28 May 11:23:07 11:27:28 37° 263° (W) 11:31:46 437.575/2403.000
Oscar 11 28 May 11:25:28 11:29:15 30° 290° (WNW) 11:32:57 145.826/435.025
DX 1 28 May 11:25:30 11:29:55 71° 102° (ESE) 11:34:17 434.975-435.025
BUGSAT 1 28 May 11:32:34 11:36:44 90° 318° (NW) 11:40:58 437.445
50 SAT 28 May 11:33:49 11:37:34 47° 99° (E) 11:41:18 437.505
Cosmos 2504 28 May 11:39:00 11:46:25 34° 289° (WNW) 11:53:15 435.465 / 435.565
CUBEBUG 1 28 May 11:39:48 11:43:29 26° 94° (E) 11:47:15 437.445
VELOX 1 28 May 11:45:27 11:49:53 57° 100° (E) 11:54:17 145.980
ESTCUBE 1 28 May 11:54:15 11:58:35 42° 98° (E) 12:02:54 437.505/2401.250
TIGRISAT 28 May 11:56:35 11:59:53 18° 269° (W) 12:03:00 435.000
QB50P1 28 May 12:00:02 12:03:49 30° 264° (W) 12:07:36 145.935-145.965
GONETS M04 28 May 12:00:25 12:06:36 23° 81° (E) 12:13:10
POLYITAN 1 28 May 12:02:59 12:06:42 27° 265° (W) 12:10:24 437.675
UWE-3 28 May 12:06:22 12:09:09 16° 295° (WNW) 12:11:45 435.000/436.395/437.385
